Location: Hains Lake
(37.8540°N, 99.8578°W)
Time: 12:44:03
(UTC+00:00)

Vanguard 1 - All Passes

Search period start: 18 April 2021 00:00
Search period end: 28 April 2021 00:00
Orbit: 648 x 3834 km, 34.3° (Epoch: 17 April)

Date Brightness Start Highest point End Pass type
(mag) Time Alt. Az. Time Alt. Az. Time Alt. Az.
18 Apr - 00:39:11 10° W 01:01:29 76° SSW 01:22:47 10° ESE daylight
18 Apr - 03:05:29 10° WNW 03:27:15 49° SW 03:43:49 10° SSE visible
18 Apr - 05:38:17 10° W 05:48:47 16° WSW 05:57:25 10° SSW visible
18 Apr - 17:59:15 10° S 18:08:17 24° SE 18:21:20 10° E daylight
18 Apr - 20:15:33 10° SW 20:29:36 60° SSE 20:51:42 10° E daylight
18 Apr - 22:36:36 10° W 22:55:23 80° S 23:19:10 10° E daylight
19 Apr - 01:00:34 10° W 01:22:57 71° SSW 01:43:47 10° ESE visible
19 Apr - 03:27:25 10° W 03:47:55 41° SW 04:03:44 10° SSE visible
19 Apr - 18:18:26 10° SSW 18:28:27 32° SE 18:44:02 10° E daylight
19 Apr - 20:36:08 10° WSW 20:50:38 67° SSE 21:13:26 10° E daylight
19 Apr - 22:57:45 10° W 23:17:00 80° S 23:40:39 10° E daylight
20 Apr - 01:22:00 10° W 01:44:17 65° SSW 02:04:34 10° SE visible
20 Apr - 03:49:41 10° W 04:08:26 33° SW 04:23:12 10° S visible
20 Apr - 18:38:08 10° SSW 18:48:47 40° SE 19:06:16 10° E daylight
20 Apr - 20:56:53 10° WSW 21:11:51 73° SSE 21:35:08 10° E daylight
20 Apr - 23:18:57 10° W 23:38:38 79° S 00:02:03 10° ESE daylight
21 Apr - 01:43:29 10° W 02:05:27 57° SSW 02:25:08 10° SE visible
21 Apr - 04:12:31 10° W 04:28:48 25° SW 04:42:05 10° S visible
21 Apr - 16:45:05 10° SSE 16:49:45 13° ESE 16:55:31 10° E daylight
21 Apr - 18:58:12 10° SW 19:09:19 49° SE 19:28:14 10° E daylight
21 Apr - 21:17:45 10° WSW 21:33:12 78° S 21:56:49 10° E daylight
21 Apr - 23:40:10 10° W 00:00:13 75° SSW 00:23:19 10° ESE daylight
22 Apr - 02:05:05 10° W 02:26:27 50° SW 02:45:24 10° SSE visible
22 Apr - 04:36:27 10° W 04:49:05 18° SW 04:59:53 10° SSW visible
22 Apr - 17:02:52 10° S 17:09:46 20° SE 17:19:37 10° E daylight
22 Apr - 19:18:32 10° SW 19:30:04 58° SSE 19:50:05 10° E daylight
22 Apr - 21:38:43 10° W 21:54:41 80° S 22:18:29 10° E daylight
23 Apr - 00:01:25 10° W 00:21:42 70° SSW 00:44:24 10° ESE daylight
23 Apr - 02:26:54 10° W 02:47:15 42° SW 03:05:19 10° SSE visible
23 Apr - 05:03:32 10° WSW 05:09:20 12° WSW 05:14:43 10° SW visible
23 Apr - 17:21:57 10° S 17:29:54 28° SE 17:42:23 10° E daylight
23 Apr - 19:39:04 10° WSW 19:51:00 66° SSE 20:11:52 10° E daylight
23 Apr - 21:59:46 10° W 22:16:12 80° S 22:40:06 10° E daylight
24 Apr - 00:22:43 10° W 00:43:04 64° SSW 01:05:16 10° SE daylight
24 Apr - 02:49:01 10° W 03:07:56 34° SW 03:24:48 10° SSE visible
24 Apr - 17:41:37 10° SSW 17:50:11 37° SE 18:04:38 10° E daylight
24 Apr - 19:59:46 10° WSW 20:12:06 72° SSE 20:33:38 10° E daylight
24 Apr - 22:20:50 10° W 22:37:44 78° S 23:01:37 10° ESE daylight
25 Apr - 00:44:05 10° W 01:04:19 57° SSW 01:25:53 10° SE daylight
25 Apr - 03:11:43 10° W 03:28:30 26° SW 03:43:39 10° S visible
25 Apr - 18:01:39 10° SW 18:10:39 46° SE 18:26:35 10° E daylight
25 Apr - 20:20:34 10° WSW 20:33:21 77° S 20:55:24 10° E daylight
25 Apr - 22:41:56 10° W 22:59:15 74° SSW 23:23:00 10° ESE daylight
26 Apr - 01:05:34 10° W 01:25:24 49° SW 01:46:11 10° SSE daylight
26 Apr - 03:35:27 10° W 03:48:59 19° SW 04:01:28 10° SSW visible
26 Apr - 16:06:57 10° SSE 16:11:51 16° SE 16:18:22 10° E daylight
26 Apr - 18:21:57 10° SW 18:31:18 55° SSE 18:48:25 10° E daylight
26 Apr - 20:41:28 10° W 20:54:41 79° S 21:17:09 10° E daylight
26 Apr - 23:03:05 10° W 23:20:41 69° SSW 23:44:11 10° ESE daylight
27 Apr - 01:27:15 10° W 01:46:22 41° SW 02:06:06 10° SSE visible
27 Apr - 04:01:48 10° WSW 04:09:27 13° SW 04:16:46 10° SW visible
27 Apr - 16:25:49 10° S 16:31:58 24° SE 16:41:16 10° E daylight
27 Apr - 18:42:28 10° WSW 18:52:09 64° SSE 19:10:12 10° E daylight
27 Apr - 21:02:25 10° W 21:16:05 79° S 21:38:51 10° E daylight
